Вернуться в каталог

SNAP-3 ALICE

АктивенНаукаVLEO
NORAD 40970·PAYLOAD·🇺🇸 United States

Запущен Oct 8, 2015 с Vandenberg Space Force Base

Loading…

Ближайшие Пролёты (ближайшие 24 часа)

TLE

СвежийSource: Space-Track

Эпоха: Sep 14, 2026, 03:03 UTC

1 40970U 15058G   26257.12737793  .01319047  10305-2  19284-2 0  9992
2 40970  64.7343 150.0118 0015537 267.0802  92.8587 16.04805119130885

Отслеживайте SNAP-3 ALICE в реальном времени с AllMySat

Download on the App Store